Regional Weather Roundup
Issued by NWS

Home | Current Version | Previous Version | Text Only | Print | Product List | Glossary On
Versions: 1 2 3 4 5 6 7 8 9 10 11 12 13 14 15 16 17 18 19 20 21 22 23 24 25 26 27 28 29 30 31 32 33 34 35 36 37 38 39 40 41 42 43 44 45 46 47 48 49 50
000
ASUS45 KPSR 240310
RWRAZ

ARIZONA REGIONAL HOURLY WEATHER ROUNDUP
NATIONAL WEATHER SERVICE PHOENIX AZ
800 PM MST TUE SEP 23 2014

NOTE: FAIR INDICATES FEW OR NO CLOUDS BELOW 12,000 FEET WITH NO
SIGNIFICANT WEATHER AND/OR OBSTRUCTIONS TO VISIBILITY.

AZZ001>003-036-240400-
NORTHWEST ARIZONA

CITY           SKY/WX    TMP DP  RH WIND       PRES   REMARKS
BULLHEAD CITY  LGT RAIN  91  32  12 CALM      29.84R
KINGMAN        CLEAR     71  35  26 S10       30.05R
$$

AZZ004>008-015-016-018-240400-
NORTH CENTRAL ARIZONA

CITY           SKY/WX    TMP DP  RH WIND       PRES   REMARKS
GRAND CANYON   CLEAR     51  34  52 VRB6      30.29R
PRESCOTT       CLEAR     69  30  23 S10       30.17R
FLAGSTAFF      CLEAR     56  40  55 CALM      30.32R
PAYSON         CLEAR     73  45  35 NW5       30.18R
PAGE           CLEAR     78  38  23 S5        30.10R
$$

AZZ009>014-017-240400-
NORTHEAST ARIZONA

CITY           SKY/WX    TMP DP  RH WIND       PRES   REMARKS
WINSLOW        CLEAR     77  38  24 NW6       30.15R
SAINT JOHNS    CLEAR     71  42  35 N3        30.19R
WINDOW ROCK    CLEAR     69  42  37 SE7       30.28
SHOW LOW       PTCLDY    64  46  52 S3        30.27R
$$

AZZ023-240400-
GREATER PHOENIX AREA

CITY           SKY/WX    TMP DP  RH WIND       PRES   REMARKS
PHOENIX        PTCLDY    92  50  23 SW5       29.83R
BUCKEYE          N/A     84  50  30 NE8       29.85R
GLENDALE       CLEAR     93  48  21 SW3       29.85R
LUKE AFB       CLEAR     90  51  26 W6        29.84R
DEER VALLEY    CLEAR     88  45  22 CALM      29.87R
SCOTTSDALE     CLEAR     92  45  19 CALM      29.88R
MESA-FALCON    CLEAR     91  46  21 W6        29.85R
MESA-GATEWAY   PTCLDY    93  48  21 CALM      29.88R
CHANDLER       PTCLDY    90  52  27 SW7       29.85R
$$

AZZ027-028-240400-
SOUTHWEST MARICOPA COUNTY AND PINAL COUNTY

CITY           SKY/WX    TMP DP  RH WIND       PRES   REMARKS
CASA GRANDE    CLEAR     88  46  23 CALM      29.88S
GILA BEND      CLEAR     93  41  16 S2        29.85R
$$

AZZ503-504-507>509-240400-
SOUTHEAST ARIZONA

CITY           SKY/WX    TMP DP  RH WIND       PRES   REMARKS
TUCSON         CLEAR     90  51  26 NW12      29.97R
DAVIS-MONTHAN  CLEAR     88  55  32 NW10      29.96R
RYAN FIELD       N/A     88  54  31 NW3       29.96R
NOGALES        CLEAR     74  64  71 E5        30.05R
SIERRA VISTA   PTCLDY    75  64  69 S3        30.13S
DOUGLAS        CLEAR     74  62  66 E7        30.08R
SAFFORD        CLEAR     81  62  52 S3        30.00R
$$

AZZ020-021-025-026-031-240400-
SOUTHWEST ARIZONA

CITY           SKY/WX    TMP DP  RH WIND       PRES   REMARKS
YUMA           CLEAR     98  51  20 W3        29.78R
$$

CAZ031-033-041-043-047-048-061-240400-
SOUTHERN CALIFORNIA

CITY           SKY/WX    TMP DP  RH WIND       PRES   REMARKS
DOWNTOWN L.A.  CLEAR     70  62  76 W3        29.88S
L.A. AIRPORT   PTCLDY    67  63  87 W10       29.89S
SAN DIEGO      PTCLDY    73  65  75 N7        29.90R
BURBANK        CLEAR     77  53  43 VRB5      29.89S
ONTARIO        CLEAR     82  52  35 W9        29.89R
RIVERSIDE      CLEAR     81  56  42 W7        29.89R
PALM SPRINGS   CLEAR     95  50  21 CALM      29.82R
EL CENTRO NAS  CLEAR     94  53  25 CALM      29.76R
IMPERIAL       CLEAR     93  58  30 CALM      29.76R
BLYTHE         CLEAR     93  53  25 E6        29.79R
NEEDLES        CLEAR     90  41  18 W7        29.85R
$$

NVZ020-UTZ003-240400-
SOUTHERN NEVADA-UTAH

CITY           SKY/WX    TMP DP  RH WIND       PRES   REMARKS
LAS VEGAS      CLEAR     89  30  12 S6        29.90R
SALT LAKE CITY PTCLDY    72  51  47 S7        30.10R
$$

NMZ009-TXZ055-240400-
NEW MEXICO-WEST TEXAS

CITY           SKY/WX    TMP DP  RH WIND       PRES   REMARKS
ALBUQUERQUE    PTCLDY    74  55  51 S8        30.18R
EL PASO        PTCLDY    76  58  53 S7        30.11R
$$


........................KEY........................
SKY/WX - SKY CONDITION/WEATHER
TMP    - TEMPERATURE IN FAHRENHEIT
DP     - DEW POINT IN FAHRENHEIT
RH     - RELATIVE HUMIDITY IN PERCENT
WIND   - DIRECTION AND SPEED IN MILES PER HOUR (MPH)
VRB    - VARIABLE WIND DIRECTION
PRES   - MEAN SEA LEVEL PRESSURE IN INCHES OF MERCURY
         F - FALLING PRESSURE   R - RISING PRESSURE
         S - STEADY PRESSURE
VSB    - VISIBILITY IN MILES
HX     - HEAT INDEX IN FAHRENHEIT
WCI    - WIND CHILL INDEX IN FAHRENHEIT
TC     - TEMPERATURE IN CELSIUS WHICH IS ALSO KNOWN AS
         TEMPERATURE IN CENTIGRADE
AFB    - AIR FORCE BASE
         LUKE AFB IS LUKE AIR FORCE BASE
         DAVIS-MONTHAN IS DAVIS-MONTHAN AIR FORCE BASE
NAS    - NAVAL AIR STATION
         EL CENTRO NAS IS EL CENTRO NAVAL AIR STATION
N/A    - NOT AVAILABLE



USA.gov is the U.S. government's official web portal to all federal, state and local government web resources and services.